CST,Max TemperatureF,Mean TemperatureF,Min TemperatureF,Max Dew PointF,MeanDew PointF,Min DewpointF,Max Humidity, Mean Humidity, Min Humidity, Max Sea Level PressureIn, Mean Sea Level PressureIn, Min Sea Level PressureIn, Max VisibilityMiles, Mean VisibilityMiles, Min VisibilityMiles, Max Wind SpeedMPH, Mean Wind SpeedMPH, Max Gust SpeedMPH,PrecipitationIn, CloudCover, Events, WindDirDegrees
2014-2-1,8,3,-2,-1,-4,-8,79,71,63,30.22,30.11,29.85,10,9,2,25,13,30,T,7,Snow,277
2014-2-2,16,10,3,5,1,-3,79,69,59,30.19,30.12,30.02,10,10,5,21,12,26,T,4,Snow,243
2014-2-3,13,5,-4,4,-3,-11,73,61,49,30.54,30.31,30.11,10,9,2,25,13,30,T,5,Snow,296
2014-2-4,4,-1,-7,-7,-11,-13,79,68,56,30.75,30.65,30.45,10,10,8,21,12,26,0.00,3,,279
2014-2-5,-1,-4,-8,-10,-12,-14,78,71,64,30.79,30.70,30.49,10,8,2,23,16,28,T,8,Snow,284
2014-2-6,5,2,-2,-4,-7,-12,75,69,62,30.55,30.30,30.08,10,9,5,28,19,33,T,5,Snow,259
2014-2-7,10,2,-7,-5,-11,-15,78,64,49,30.09,30.05,30.02,10,10,10,24,11,32,0.00,0,,247
2014-2-8,5,-2,-10,-3,-8,-15,83,76,68,30.45,30.25,30.09,10,10,6,15,7,17,T,2,Snow,307
2014-2-9,0,-6,-12,-10,-13,-17,79,69,58,30.54,30.45,30.29,10,10,9,21,12,25,0.00,2,,282
2014-2-10,9,-3,-16,-2,-11,-21,81,69,57,30.53,30.44,30.17,10,10,10,18,7,23,0.00,0,,169
2014-2-11,31,15,-1,19,5,-7,83,73,62,30.19,29.92,29.73,10,10,5,30,18,36,T,2,Snow,256
2014-2-12,27,10,-7,18,3,-11,84,73,62,30.23,29.70,29.26,10,6,1,24,11,30,0.06,5,Snow,133
2014-2-13,16,5,-7,9,-5,-13,83,74,65,29.98,29.75,29.34,10,7,2,30,10,36,T,5,Snow,326
2014-2-14,21,7,-7,15,2,-10,84,76,67,30.15,29.97,29.69,10,10,5,18,7,21,0.00,1,,173
2014-2-15,22,9,-5,16,3,-9,88,81,73,30.27,29.94,29.64,10,6,1,22,9,27,T,5,Snow,334
2014-2-16,22,7,-8,19,5,-11,92,79,66,30.20,29.80,29.57,10,5,1,24,11,31,0.11,6,Snow,137
2014-2-17,42,32,22,25,21,17,92,70,48,29.73,29.60,29.47,10,10,10,28,17,36,T,0,,231
2014-2-18,39,32,24,27,21,17,81,67,52,29.80,29.65,29.46,10,10,10,25,14,33,T,0,,252
2014-2-19,39,29,18,29,21,15,91,78,64,29.73,29.54,29.42,10,9,1,16,7,20,0.00,4,,125
2014-2-20,22,11,0,19,7,-7,92,79,66,29.91,29.70,29.47,10,5,1,29,15,33,T,6,Snow,314
2014-2-21,11,3,-5,-1,-6,-11,79,69,58,30.01,29.92,29.84,10,10,10,24,15,29,0.00,0,,291
2014-2-22,12,5,-2,0,-4,-10,76,67,58,30.30,30.17,30.03,10,10,10,24,18,30,T,1,,283
2014-2-23,7,1,-6,0,-7,-14,79,71,62,30.51,30.44,30.30,10,10,9,25,17,31,0.00,2,Snow,280
2014-2-24,1,-3,-8,-10,-13,-15,74,66,58,30.54,30.47,30.33,10,7,2,24,15,28,T,4,Snow,287
2014-2-25,1,-4,-10,-9,-13,-17,72,62,51,30.63,30.51,30.34,10,10,6,22,15,27,0.00,1,,278
2014-2-26,14,5,-5,2,-5,-15,69,61,53,30.27,30.04,29.88,10,10,8,37,21,43,T,2,Snow,285
2014-2-27,13,0,-13,0,-9,-19,79,66,53,30.19,29.99,29.69,10,10,10,16,8,21,0.00,0,,171
2014-2-28,13,-1,-15,5,-10,-24,79,71,62,30.53,30.09,29.66,10,9,5,33,21,39,T,3,Snow,292